K8VGL Weather Reports


time (UTC)temp
F
wind
direction
speed
knots
gust
knots
rain 1hr
in
rain 24hr
in
rain mn
in
humidity
%
barometer
mb
20260906080034 70 99 0.9 4.3 0.00 0.01 0.00 89 1014.1
20260906074528 70 97 0.9 4.3 0.00 0.01 0.00 89 1014.0
20260906073030 71 262 0.0 5.2 0.00 0.01 0.00 91 1013.9
20260906071525 71 56 1.7 4.3 0.00 0.01 0.00 91 1013.9
20260906070022 72 326 0.9 4.3 0.00 0.01 0.00 92 1013.9
20260906064522 72 148 0.9 5.2 0.00 0.01 0.00 92 1013.8
20260906063021 72 61 0.9 2.6 0.00 0.01 0.00 92 1013.8
20260906061521 72 308 0.0 2.6 0.00 0.01 0.00 92 1013.8
20260906060025 73 83 0.9 4.3 0.00 0.01 0.00 91 1013.7
20260906054526 73 65 0.0 2.6 0.00 0.01 0.00 91 1013.5
20260906053013 74 293 0.0 3.5 0.00 0.01 0.00 91 1013.5
20260906051514 74 284 0.9 4.3 0.00 0.01 0.00 91 1013.5
20260906050012 74 71 0.0 4.3 0.00 0.01 0.00 91 1013.5
20260906044510 74 181 0.0 4.3 0.00 0.01 0.00 91 1013.3
20260906043014 74 67 0.9 5.2 0.00 0.01 0.00 90 1013.2
20260906041507 75 66 1.7 4.3 0.00 0.01 0.00 89 1013.3
20260906040004 75 173 0.0 4.3 0.00 0.01 0.01 88 1013.2
20260906034507 75 168 0.0 3.5 0.00 0.01 0.01 88 1013.1
20260906033009 76 340 1.7 7.0 0.00 0.01 0.01 88 1013.1
20260906031505 77 85 0.0 1.7 0.00 0.01 0.01 87 1012.9
20260906030001 77 88 0.9 6.1 0.00 0.01 0.01 86 1012.9
20260906024501 77 86 0.9 5.2 0.00 0.01 0.01 86 1012.7
20260906023105 78 331 0.9 2.6 0.00 0.01 0.01 87 1012.5
20260906021503 78 318 0.9 6.1 0.00 0.01 0.01 86 1012.2
20260906020101 78 350 0.9 2.6 0.00 0.01 0.01 86 1012.2
20260906014600 78 340 0.9 2.6 0.00 0.01 0.01 86 1011.9
20260906013107 78 340 0.0 1.7 0.00 0.01 0.01 85 1011.7
20260906011559 79 345 0.0 1.7 0.00 0.01 0.01 85 1011.7
20260906010058 79 308 0.0 2.6 0.00 0.01 0.01 84 1011.5
20260906004558 79 356 0.0 1.7 0.00 0.01 0.01 84 1011.2
20260906003058 80 300 0.0 3.5 0.00 0.01 0.01 83 1011.1
20260906001607 80 345 0.0 2.6 0.00 0.01 0.01 82 1010.9
20260906000057 80 328 0.0 2.6 0.00 0.01 0.01 80 1011.0
20260905234557 81 311 0.0 1.7 0.00 0.01 0.01 78 1011.0
20260905233102 81 340 0.0 0.0 0.00 0.01 0.01 78 1010.9
20260905231556 81 340 0.0 0.9 0.00 0.01 0.01 77 1011.0
20260905224615 81 345 0.0 1.7 0.00 0.01 0.01 83 1010.7
20260905223105 80 350 0.0 3.5 0.01 0.01 0.01 85 1010.5
20260905221558 80 4 0.0 2.6 0.01 0.01 0.01 87 1010.9
20260905220054 80 285 0.9 3.5 0.01 0.01 0.01 87 1010.7
20260905214555 83 315 0.9 1.7 0.01 0.01 0.01 83 1010.4
20260905213100 86 296 0.0 1.7 0.00 0.00 0.00 74 1010.9
20260905211552 88 7 0.0 1.7 0.00 0.00 0.00 70 1010.2
20260905210059 89 326 0.9 2.6 0.00 0.00 0.00 68 1010.5
20260905204550 90 321 0.9 3.5 0.00 0.00 0.00 64 1010.6
20260905203049 91 302 0.0 1.7 0.00 0.00 0.00 66 1010.7
20260905201548 91 333 0.9 3.5 0.00 0.00 0.00 63 1011.0
20260905200047 91 292 0.9 2.6 0.00 0.00 0.00 66 1011.1
20260905194548 90 336 0.0 2.6 0.00 0.00 0.00 65 1011.1
20260905193043 91 171 1.7 4.3 0.00 0.00 0.00 64 1011.3
20260905191542 90 328 0.9 4.3 0.00 0.00 0.00 65 1011.4
20260905190040 90 45 0.9 2.6 0.00 0.00 0.00 65 1011.8
20260905184547 89 135 0.0 2.6 0.00 0.00 0.00 67 1012.0
20260905183036 89 262 0.9 2.6 0.00 0.00 0.00 66 1012.2
20260905181535 89 38 0.0 3.5 0.00 0.00 0.00 66 1012.4
20260905180040 88 129 0.9 3.5 0.00 0.00 0.00 64 1012.6
20260905174530 88 132 0.9 5.2 0.00 0.00 0.00 68 1012.6
20260905173030 87 248 0.0 4.3 0.00 0.00 0.00 65 1012.7
20260905171529 87 280 0.9 2.6 0.00 0.00 0.00 66 1012.9
20260905170025 86 283 0.9 3.5 0.00 0.00 0.00 63 1013.1
20260905164526 86 140 1.7 3.5 0.00 0.00 0.00 65 1013.4
20260905163021 84 350 0.9 5.2 0.00 0.00 0.00 65 1013.5
20260905161516 84 179 0.9 6.1 0.00 0.00 0.00 67 1013.5
20260905160015 83 264 1.7 6.1 0.00 0.00 0.00 67 1013.5
20260905154511 82 2 1.7 7.0 0.00 0.00 0.00 69 1013.5
20260905153014 80 185 1.7 6.1 0.00 0.00 0.00 70 1013.5
20260905151511 79 259 0.9 5.2 0.00 0.00 0.00 73 1013.8
20260905150108 78 65 1.7 7.0 0.00 0.00 0.00 73 1013.8
20260905144558 78 254 0.9 7.0 0.00 0.00 0.00 75 1013.7
20260905143058 77 277 1.7 6.1 0.00 0.00 0.00 75 1014.0
20260905141555 76 70 0.9 4.3 0.00 0.00 0.00 76 1014.0
20260905140055 75 42 2.6 6.1 0.00 0.00 0.00 77 1014.1
20260905134556 74 137 1.7 6.1 0.00 0.00 0.00 79 1014.0
20260905133053 74 133 2.6 6.1 0.00 0.00 0.00 79 1014.1
20260905131553 73 135 1.7 7.0 0.00 0.00 0.00 80 1014.1
20260905130050 73 145 0.9 7.0 0.00 0.00 0.00 82 1014.2
20260905124549 72 165 2.6 6.1 0.00 0.00 0.00 82 1014.2
20260905123102 72 123 1.7 8.7 0.00 0.00 0.00 83 1014.2
20260905121553 72 96 0.9 3.5 0.00 0.00 0.00 83 1014.3
20260905120044 73 147 0.9 3.5 0.00 0.00 0.00 84 1014.0
20260905114542 73 140 1.7 7.0 0.00 0.00 0.00 84 1013.8
20260905113039 74 91 2.6 7.8 0.00 0.00 0.00 88 1013.4
20260905111536 73 80 1.7 6.1 0.00 0.00 0.00 97 1013.2
20260905110034 73 225 0.0 0.9 0.00 0.00 0.00 97 1012.5
20260905104533 73 225 0.0 0.0 0.00 0.00 0.00 97 1012.3
20260905103032 73 225 0.0 0.0 0.00 0.00 0.00 97 1012.4
20260905101534 73 225 0.0 0.0 0.00 0.00 0.00 97 1012.2
20260905100106 73 225 0.0 0.0 0.00 0.00 0.00 96 1012.1
20260905094541 74 225 0.0 0.0 0.00 0.00 0.00 96 1012.1
20260905093029 74 225 0.0 0.0 0.00 0.00 0.00 96 1012.2
20260905091528 74 225 0.0 0.0 0.00 0.00 0.00 96 1012.1
20260905090027 74 225 0.0 0.0 0.00 0.00 0.00 96 1012.2
20260905084526 74 225 0.0 0.0 0.00 0.00 0.00 96 1012.1
20260905083028 74 225 0.0 0.0 0.00 0.00 0.00 96 1012.1
20260905081526 74 225 0.0 0.0 0.00 0.00 0.00 97 1011.8